CZ-6A DEB, 54447

Orbit data source: Space-Track

CZ-6A DEB, 54447 is space debris in SSO originally from a launch on Fri, 11 Nov 2022 UTC launched from the Taiyaun Space Center, China (TSC). Debris objects in space refer to the collection of defunct objects orbiting the Earth. Examples of debris include non-operational satellites, rocket bodies, and fragments generated from explosions, collisions, or faulty payload assembly.

Loading next visibility...
Identifier
54447, 2022-151FX
Orbit
SSO
Country
Flag of CNCN / PRC
Related business
Manufacturer
SAST
Mission
Spacecraft
Bus & Motor
Unknown
Mass
Unknown
Launch date (UTC)
2022-11-11 (4 years ago)
Launch vehicle
Unknown
Launch site
Taiyaun Space Center, China (TSC)
Object type
Payload
Rocket body
Debris
Shape & HBR
Unknown shape, 0.1 m
Radar Cross Section
Medium (>0.1 m² and <1 m²)

Expand to show TLE details & history
Last TLE update: 2 days ago

TLE from 2 days ago
0 CZ-6A DEB
1 54447U 22151FX  26171.35023381  .00000135  00000-0  13905-3 0  9997
2 54447  98.9656 127.7619 0169404 135.1601 226.3387 13.84874582181846
Epoch: 2026-06-20T08:24Z
TLE epoch observation values (Epoch: 2026-06-20T08:24:20.201Z)
Latitude
-0.00002°
Longitude
93.11161°
Altitude
1,036.273 km
Speed
7.29 km/s
True Right ascension
08h 31m 02s
True Declination
0° 00' 00"
Sunlit
Object was in daylight at epoch
Visualization orbit readout
Latitude
Unknown
Longitude
Unknown
Altitude
Unknown
Speed
Unknown
Apparent Right ascension
Unknown
Apparent Declination
Unknown
Sunlit
N/A
Visualization observer readout
Local Sidereal Time
21:54:56
Azimuth
Unknown
Elevation
Unknown
Doppler factor
Unknown
Orbital elements
Apogee altitude
1,067.902 km
Perigee altitude
819.827 km
Semi-major axis
7,322.002 km
Eccentricity
0.01694
Inclination
98.9656°
RAAN
127.7619°
Arg. of periapsis
135.1601°
True anomaly
224.95473°
Mean anomaly
226.3387°
Eccentric anomaly
225.64469°
Mean motion
3.46416 °/min
Orbital period
103.92 mins
BSTAR
0.00013905
Loading maneuver chart data...
Computing Atmospheric mass density...
Loading historical data...
Loading historical data...
Loading historical data...
Loading historical data...
Loading historical data...
Loading historical data...
Loading historical data...

Documentation

Showing up to 5 results
|